* Astronomy

Members Login
Post Info TOPIC: Asteroid 2004 CK39


L

Posts: 131433
Date:
RE: Asteroid 2004 CK39
Permalink  
 


Asteroid 2004 CK39 ill make a close approach to the Earth (0.08556 AU) at 15:59 UT, 26th February 2018.



__________________


L

Posts: 131433
Date:
Permalink  
 

Orbital elements:
2004 CK39 Earth MOID = 0.0542 AU
Epoch 2011 Feb. 8.0 TT = JDT 2455600.5 MPC
M 338.06143 (2000.0) P Q
n 0.28292730 Peri. 265.29131 -0.09265311 +0.99569579
a 2.2980148 Node 359.37826 -0.80858458 -0.07659065
e 0.8289199 Incl. 12.24970 -0.58103905 -0.05218977
P 3.48 H 19.2 G 0.15 U 5

MPEC 2011 - B65


__________________
Page 1 of 1  sorted by
 
Quick Reply

Please log in to post quick replies.



Create your own FREE Forum
Report Abuse
Powered by ActiveBoard